Location: Perryvale
(54.4667°N, 113.3833°W)
Time: 23:11:05
(UTC+00:00)

Vanguard 1 Rocket - Pass Details

Date: 27 May 2024
Orbit: 649 x 4221 km, 34.3° (Epoch: 13 June)

Event Time Altitude Azimuth Distance (km) Brightness Sun altitude
Rises 14:54:52 0° 218° (SW) 8,457 12.0 29.4°
Reaches altitude 10° 15:02:11 10° 210° (SSW) 7,312 11.9 30.5°
Maximum altitude 15:20:27 29° 161° (SSE) 4,843 11.7 33.1°
Drops below altitude 10° 15:33:00 10° 109° (ESE) 5,041 12.6 34.9°
Sets 15:36:48 0° 98° (E) 5,587 12.4 35.5°
